Time,TemperatureF,DewpointF,PressureIn,WindDirection,WindDirectionDegrees,WindSpeedMPH,WindSpeedGustMPH,Humidity,HourlyPrecipIn,Conditions,Clouds,dailyrainin,SoftwareType,DateUTC
2013-06-09 00:00:00,67.8,63.8,30.01,SW,217,0.0,-999.0,87,0.00,,,0.00,Haskell-WGSend-v0.01,2013-06-09 05:00:00,
2013-06-09 00:05:00,67.8,63.8,30.02,SW,217,0.0,-999.0,87,0.00,,,0.00,Haskell-WGSend-v0.01,2013-06-09 05:05:00,
2013-06-09 00:10:00,67.8,63.5,30.01,SW,217,0.0,-999.0,86,0.00,,,0.00,Haskell-WGSend-v0.01,2013-06-09 05:10:00,
2013-06-09 00:15:00,67.9,63.6,30.01,SW,217,0.0,-999.0,86,0.00,,,0.00,Haskell-WGSend-v0.01,2013-06-09 05:15:00,
2013-06-09 00:20:00,68.1,63.4,30.01,SW,217,0.0,-999.0,85,0.00,,,0.00,Haskell-WGSend-v0.01,2013-06-09 05:20:00,
2013-06-09 00:25:00,68.3,63.6,30.01,SSW,211,0.0,-999.0,85,0.00,,,0.00,Haskell-WGSend-v0.01,2013-06-09 05:25:00,
2013-06-09 00:30:00,68.5,63.8,30.02,SSW,211,0.0,-999.0,85,0.00,,,0.00,Haskell-WGSend-v0.01,2013-06-09 05:30:00,
2013-06-09 00:35:00,68.7,64.0,30.02,SSW,211,0.0,-999.0,85,0.00,,,0.00,Haskell-WGSend-v0.01,2013-06-09 05:35:00,
2013-06-09 00:40:00,68.9,63.9,30.02,SSW,208,0.0,-999.0,84,0.00,,,0.00,Haskell-WGSend-v0.01,2013-06-09 05:40:00,
2013-06-09 00:45:00,69.0,64.0,30.02,SSW,208,0.0,-999.0,84,0.00,,,0.00,Haskell-WGSend-v0.01,2013-06-09 05:45:00,
2013-06-09 00:50:00,69.0,64.0,30.02,SSW,208,0.0,-999.0,84,0.00,,,0.00,Haskell-WGSend-v0.01,2013-06-09 05:50:00,
2013-06-09 00:55:00,69.0,64.0,30.02,SSW,208,0.0,-999.0,84,0.00,,,0.00,Haskell-WGSend-v0.01,2013-06-09 05:55:00,
2013-06-09 01:05:00,68.9,64.2,30.02,SSW,208,0.0,-999.0,85,0.00,,,0.00,Haskell-WGSend-v0.01,2013-06-09 06:05:00,
2013-06-09 01:10:00,68.8,64.1,30.02,SSW,208,0.0,-999.0,85,0.00,,,0.00,Haskell-WGSend-v0.01,2013-06-09 06:10:00,
2013-06-09 01:15:00,68.8,64.1,30.02,SSW,208,0.0,-999.0,85,0.00,,,0.00,Haskell-WGSend-v0.01,2013-06-09 06:15:00,
2013-06-09 01:20:00,68.9,64.5,30.02,SSW,208,0.0,-999.0,86,0.00,,,0.00,Haskell-WGSend-v0.01,2013-06-09 06:20:00,
2013-06-09 01:25:00,69.0,64.6,30.02,SSW,208,0.0,-999.0,86,0.00,,,0.00,Haskell-WGSend-v0.01,2013-06-09 06:25:00,
2013-06-09 01:30:00,69.2,64.5,30.02,SSW,208,0.0,-999.0,85,0.00,,,0.00,Haskell-WGSend-v0.01,2013-06-09 06:30:00,
2013-06-09 01:40:00,69.4,64.7,30.01,SSW,208,0.0,-999.0,85,0.00,,,0.00,Haskell-WGSend-v0.01,2013-06-09 06:40:00,
2013-06-09 01:45:00,69.5,64.8,30.01,SSW,208,0.0,-999.0,85,0.00,,,0.00,Haskell-WGSend-v0.01,2013-06-09 06:45:00,
2013-06-09 01:50:00,69.6,64.9,30.01,SSW,208,0.0,-999.0,85,0.00,,,0.00,Haskell-WGSend-v0.01,2013-06-09 06:50:00,
2013-06-09 01:55:00,69.7,65.0,30.01,SSW,208,0.0,-999.0,85,0.00,,,0.00,Haskell-WGSend-v0.01,2013-06-09 06:55:00,
2013-06-09 02:00:00,69.7,65.0,30.01,SSW,208,0.0,-999.0,85,0.00,,,0.00,Haskell-WGSend-v0.01,2013-06-09 07:00:00,
2013-06-09 02:05:00,69.8,65.4,30.01,SSW,208,0.0,-999.0,86,0.00,,,0.00,Haskell-WGSend-v0.01,2013-06-09 07:05:00,
2013-06-09 02:10:00,69.9,65.2,30.00,SSW,208,0.0,-999.0,85,0.00,,,0.00,Haskell-WGSend-v0.01,2013-06-09 07:10:00,
2013-06-09 02:15:00,69.9,65.2,30.00,SSW,208,0.0,-999.0,85,0.00,,,0.00,Haskell-WGSend-v0.01,2013-06-09 07:15:00,
2013-06-09 02:20:00,70.0,65.3,30.00,SSW,208,0.0,-999.0,85,0.00,,,0.00,Haskell-WGSend-v0.01,2013-06-09 07:20:00,
2013-06-09 02:25:00,70.1,65.4,30.00,SSW,208,0.0,-999.0,85,0.00,,,0.00,Haskell-WGSend-v0.01,2013-06-09 07:25:00,
2013-06-09 02:35:00,70.2,65.5,29.99,SSW,208,0.0,-999.0,85,0.00,,,0.00,Haskell-WGSend-v0.01,2013-06-09 07:35:00,
2013-06-09 02:40:00,70.3,65.6,29.99,SSW,208,0.0,-999.0,85,0.00,,,0.00,Haskell-WGSend-v0.01,2013-06-09 07:40:00,
2013-06-09 02:50:00,70.2,65.5,29.98,SSW,208,0.0,-999.0,85,0.00,,,0.00,Haskell-WGSend-v0.01,2013-06-09 07:50:00,
2013-06-09 02:55:00,70.1,65.4,29.98,SSW,208,0.0,-999.0,85,0.00,,,0.00,Haskell-WGSend-v0.01,2013-06-09 07:55:00,
2013-06-09 03:00:00,70.0,65.3,29.99,SSW,208,0.0,-999.0,85,0.00,,,0.00,Haskell-WGSend-v0.01,2013-06-09 08:00:00,
2013-06-09 03:05:00,69.8,65.1,29.99,SSW,208,0.0,-999.0,85,0.00,,,0.00,Haskell-WGSend-v0.01,2013-06-09 08:05:00,
2013-06-09 03:10:00,69.7,65.3,30.00,SSW,208,0.0,-999.0,86,0.00,,,0.00,Haskell-WGSend-v0.01,2013-06-09 08:10:00,
2013-06-09 03:15:00,69.6,65.2,30.00,SSW,208,0.0,-999.0,86,0.00,,,0.00,Haskell-WGSend-v0.01,2013-06-09 08:15:00,
2013-06-09 03:20:00,69.5,65.5,29.99,SSW,208,0.0,-999.0,87,0.00,,,0.00,Haskell-WGSend-v0.01,2013-06-09 08:20:00,
2013-06-09 03:25:00,69.5,65.5,29.99,SSW,208,0.0,-999.0,87,0.00,,,0.00,Haskell-WGSend-v0.01,2013-06-09 08:25:00,
2013-06-09 03:30:00,69.4,65.4,29.99,SSW,208,0.0,-999.0,87,0.00,,,0.00,Haskell-WGSend-v0.01,2013-06-09 08:30:00,
2013-06-09 03:35:00,69.5,65.5,29.99,SSW,208,0.0,-999.0,87,0.00,,,0.00,Haskell-WGSend-v0.01,2013-06-09 08:35:00,
2013-06-09 03:40:00,69.5,65.5,29.99,SSW,208,0.0,-999.0,87,0.00,,,0.00,Haskell-WGSend-v0.01,2013-06-09 08:40:00,
2013-06-09 03:45:00,69.6,65.6,30.00,SSW,208,0.0,-999.0,87,0.00,,,0.00,Haskell-WGSend-v0.01,2013-06-09 08:45:00,
2013-06-09 03:50:00,69.6,65.9,30.00,SSW,208,0.0,-999.0,88,0.00,,,0.00,Haskell-WGSend-v0.01,2013-06-09 08:50:00,
2013-06-09 03:55:00,69.7,66.0,30.00,SSW,208,0.0,-999.0,88,0.00,,,0.00,Haskell-WGSend-v0.01,2013-06-09 08:55:00,
2013-06-09 04:05:00,69.8,65.8,30.00,SSW,208,0.0,-999.0,87,0.00,,,0.00,Haskell-WGSend-v0.01,2013-06-09 09:05:00,
2013-06-09 04:10:00,69.7,65.7,30.00,SSW,208,0.0,-999.0,87,0.00,,,0.00,Haskell-WGSend-v0.01,2013-06-09 09:10:00,
2013-06-09 04:15:00,69.7,65.7,29.99,SSW,208,0.0,-999.0,87,0.00,,,0.00,Haskell-WGSend-v0.01,2013-06-09 09:15:00,
2013-06-09 04:20:00,69.5,65.5,30.00,SSW,208,0.0,-999.0,87,0.00,,,0.00,Haskell-WGSend-v0.01,2013-06-09 09:20:00,
2013-06-09 04:25:00,69.5,65.8,30.00,SSW,208,0.0,-999.0,88,0.00,,,0.00,Haskell-WGSend-v0.01,2013-06-09 09:25:00,
2013-06-09 04:30:00,69.5,65.8,30.00,SSW,208,0.0,-999.0,88,0.00,,,0.00,Haskell-WGSend-v0.01,2013-06-09 09:30:00,
2013-06-09 04:35:00,69.4,65.7,30.00,SSW,208,0.0,-999.0,88,0.00,,,0.00,Haskell-WGSend-v0.01,2013-06-09 09:35:00,
2013-06-09 04:40:00,69.4,65.7,30.00,SSW,208,0.0,-999.0,88,0.00,,,0.00,Haskell-WGSend-v0.01,2013-06-09 09:40:00,
2013-06-09 04:45:00,69.4,65.7,30.00,SSW,208,0.0,-999.0,88,0.00,,,0.00,Haskell-WGSend-v0.01,2013-06-09 09:45:00,
2013-06-09 04:50:00,69.4,66.0,30.00,SSW,208,0.0,-999.0,89,0.00,,,0.00,Haskell-WGSend-v0.01,2013-06-09 09:50:00,
2013-06-09 04:55:00,69.5,66.1,30.00,SSW,208,0.0,-999.0,89,0.00,,,0.00,Haskell-WGSend-v0.01,2013-06-09 09:55:00,
2013-06-09 05:00:00,69.5,66.1,30.00,SSW,208,0.0,-999.0,89,0.00,,,0.00,Haskell-WGSend-v0.01,2013-06-09 10:00:00,
2013-06-09 05:05:00,69.5,66.1,30.00,SSW,208,0.0,-999.0,89,0.00,,,0.00,Haskell-WGSend-v0.01,2013-06-09 10:05:00,
2013-06-09 05:10:00,69.5,66.1,30.01,SSW,208,0.0,-999.0,89,0.00,,,0.00,Haskell-WGSend-v0.01,2013-06-09 10:10:00,
2013-06-09 05:15:00,69.5,65.8,30.00,SSW,208,0.0,-999.0,88,0.00,,,0.00,Haskell-WGSend-v0.01,2013-06-09 10:15:00,
2013-06-09 05:20:00,69.5,66.1,30.00,SSW,208,0.0,-999.0,89,0.00,,,0.00,Haskell-WGSend-v0.01,2013-06-09 10:20:00,
2013-06-09 05:25:00,69.4,66.0,30.00,SSW,208,0.0,-999.0,89,0.00,,,0.00,Haskell-WGSend-v0.01,2013-06-09 10:25:00,
2013-06-09 05:30:00,69.3,65.9,30.00,SSW,208,0.0,-999.0,89,0.00,,,0.00,Haskell-WGSend-v0.01,2013-06-09 10:30:00,
2013-06-09 05:35:00,69.3,65.9,30.00,SSW,208,0.0,-999.0,89,0.00,,,0.00,Haskell-WGSend-v0.01,2013-06-09 10:35:00,
2013-06-09 05:40:00,69.2,65.8,30.01,SSW,208,0.0,-999.0,89,0.00,,,0.00,Haskell-WGSend-v0.01,2013-06-09 10:40:00,
2013-06-09 05:45:00,69.2,65.8,30.01,SSW,208,0.0,-999.0,89,0.00,,,0.00,Haskell-WGSend-v0.01,2013-06-09 10:45:00,
2013-06-09 05:50:00,69.1,66.0,30.00,SSW,208,0.0,-999.0,90,0.00,,,0.00,Haskell-WGSend-v0.01,2013-06-09 10:50:00,
2013-06-09 06:00:00,69.0,65.9,30.01,SSW,208,0.0,-999.0,90,0.00,,,0.00,Haskell-WGSend-v0.01,2013-06-09 11:00:00,
2013-06-09 06:05:00,69.0,65.9,30.00,SSW,208,0.0,-999.0,90,0.00,,,0.00,Haskell-WGSend-v0.01,2013-06-09 11:05:00,
2013-06-09 06:10:00,69.0,66.3,30.00,SSW,208,0.0,-999.0,91,0.00,,,0.00,Haskell-WGSend-v0.01,2013-06-09 11:10:00,
2013-06-09 06:20:00,69.1,66.4,30.01,SSW,208,0.0,-999.0,91,0.00,,,0.00,Haskell-WGSend-v0.01,2013-06-09 11:20:00,
2013-06-09 06:25:00,69.3,66.6,30.00,SSW,208,0.0,-999.0,91,0.00,,,0.00,Haskell-WGSend-v0.01,2013-06-09 11:25:00,
2013-06-09 06:30:00,69.4,66.7,30.01,SSW,208,0.0,-999.0,91,0.00,,,0.00,Haskell-WGSend-v0.01,2013-06-09 11:30:00,
2013-06-09 06:35:00,69.7,67.0,30.00,SSW,208,0.0,-999.0,91,0.00,,,0.00,Haskell-WGSend-v0.01,2013-06-09 11:35:00,
2013-06-09 06:40:00,69.9,67.2,30.00,SSW,204,2.0,-999.0,91,0.00,,,0.00,Haskell-WGSend-v0.01,2013-06-09 11:40:00,
2013-06-09 06:45:00,70.2,67.1,30.01,SSW,203,0.0,-999.0,90,0.00,,,0.00,Haskell-WGSend-v0.01,2013-06-09 11:45:00,
2013-06-09 06:50:00,70.5,67.7,30.01,SSW,203,0.0,-999.0,91,0.00,,,0.00,Haskell-WGSend-v0.01,2013-06-09 11:50:00,
2013-06-09 06:55:00,70.8,67.7,30.01,South,190,0.0,-999.0,90,0.00,,,0.00,Haskell-WGSend-v0.01,2013-06-09 11:55:00,
2013-06-09 07:00:00,71.1,68.0,30.01,South,189,0.0,-999.0,90,0.00,,,0.00,Haskell-WGSend-v0.01,2013-06-09 12:00:00,
2013-06-09 07:05:00,71.5,68.4,30.01,South,178,0.0,-999.0,90,0.00,,,0.00,Haskell-WGSend-v0.01,2013-06-09 12:05:00,
2013-06-09 07:10:00,71.9,68.8,30.02,South,178,0.0,-999.0,90,0.00,,,0.00,Haskell-WGSend-v0.01,2013-06-09 12:10:00,
2013-06-09 07:15:00,72.4,68.6,30.02,SE,132,5.0,-999.0,88,0.00,,,0.00,Haskell-WGSend-v0.01,2013-06-09 12:15:00,
2013-06-09 07:20:00,72.7,68.9,30.02,SE,134,0.0,-999.0,88,0.00,,,0.00,Haskell-WGSend-v0.01,2013-06-09 12:20:00,
2013-06-09 07:25:00,73.0,68.9,30.02,SE,130,1.0,-999.0,87,0.00,,,0.00,Haskell-WGSend-v0.01,2013-06-09 12:25:00,
2013-06-09 07:30:00,73.3,69.2,30.02,SSE,156,0.0,-999.0,87,0.00,,,0.00,Haskell-WGSend-v0.01,2013-06-09 12:30:00,
2013-06-09 07:35:00,73.7,69.6,30.02,South,172,1.0,-999.0,87,0.00,,,0.00,Haskell-WGSend-v0.01,2013-06-09 12:35:00,
2013-06-09 07:40:00,74.0,69.5,30.02,South,173,1.0,-999.0,86,0.00,,,0.00,Haskell-WGSend-v0.01,2013-06-09 12:40:00,
2013-06-09 07:45:00,74.3,69.8,30.02,South,173,0.0,-999.0,86,0.00,,,0.00,Haskell-WGSend-v0.01,2013-06-09 12:45:00,
2013-06-09 07:50:00,74.5,70.0,30.02,South,172,4.0,-999.0,86,0.00,,,0.00,Haskell-WGSend-v0.01,2013-06-09 12:50:00,
2013-06-09 07:55:00,74.7,70.2,30.02,South,171,0.0,-999.0,86,0.00,,,0.00,Haskell-WGSend-v0.01,2013-06-09 12:55:00,
2013-06-09 08:00:00,74.7,70.2,30.02,South,171,0.0,-999.0,86,0.00,,,0.00,Haskell-WGSend-v0.01,2013-06-09 13:00:00,
2013-06-09 08:05:00,74.7,69.9,30.02,South,169,2.0,-999.0,85,0.00,,,0.00,Haskell-WGSend-v0.01,2013-06-09 13:05:00,
2013-06-09 08:10:00,74.6,70.1,30.02,South,169,1.0,-999.0,86,0.00,,,0.01,Haskell-WGSend-v0.01,2013-06-09 13:10:00,
2013-06-09 08:15:00,74.3,70.2,30.02,SSE,165,0.0,-999.0,87,0.18,,,0.03,Haskell-WGSend-v0.01,2013-06-09 13:15:00,
2013-06-09 08:20:00,73.8,70.0,30.02,SSE,164,0.0,-999.0,88,0.13,,,0.04,Haskell-WGSend-v0.01,2013-06-09 13:20:00,
2013-06-09 08:25:00,73.4,70.0,30.02,SSE,164,0.0,-999.0,89,0.06,,,0.04,Haskell-WGSend-v0.01,2013-06-09 13:25:00,
2013-06-09 08:30:00,73.2,70.1,30.02,SSE,164,0.0,-999.0,90,0.04,,,0.04,Haskell-WGSend-v0.01,2013-06-09 13:30:00,
2013-06-09 08:35:00,73.1,70.3,30.02,SSE,164,0.0,-999.0,91,0.00,,,0.04,Haskell-WGSend-v0.01,2013-06-09 13:35:00,
2013-06-09 08:40:00,72.9,70.1,30.02,SSE,164,0.0,-999.0,91,0.00,,,0.04,Haskell-WGSend-v0.01,2013-06-09 13:40:00,
2013-06-09 08:45:00,72.8,70.0,30.02,SSE,164,0.0,-999.0,91,0.00,,,0.04,Haskell-WGSend-v0.01,2013-06-09 13:45:00,
2013-06-09 08:50:00,72.8,70.3,30.00,SSE,164,0.0,-999.0,92,0.00,,,0.04,Haskell-WGSend-v0.01,2013-06-09 13:50:00,
2013-06-09 08:55:00,73.0,70.5,30.01,SSE,164,0.0,-999.0,92,0.00,,,0.04,Haskell-WGSend-v0.01,2013-06-09 13:55:00,
2013-06-09 09:00:00,73.3,70.8,30.01,South,169,0.0,-999.0,92,0.00,,,0.04,Haskell-WGSend-v0.01,2013-06-09 14:00:00,
2013-06-09 09:05:00,73.8,71.3,30.01,SSE,165,0.0,-999.0,92,0.00,,,0.04,Haskell-WGSend-v0.01,2013-06-09 14:05:00,
2013-06-09 09:10:00,74.3,71.8,30.00,SSE,155,0.0,-999.0,92,0.00,,,0.04,Haskell-WGSend-v0.01,2013-06-09 14:10:00,
2013-06-09 09:15:00,74.6,71.5,30.01,SSE,165,6.0,-999.0,90,0.00,,,0.04,Haskell-WGSend-v0.01,2013-06-09 14:15:00,
2013-06-09 09:20:00,74.7,71.2,30.01,SSW,200,0.0,-999.0,89,0.00,,,0.04,Haskell-WGSend-v0.01,2013-06-09 14:20:00,
2013-06-09 09:25:00,74.8,71.3,30.01,SSE,167,0.0,-999.0,89,0.00,,,0.04,Haskell-WGSend-v0.01,2013-06-09 14:25:00,
2013-06-09 09:30:00,74.8,71.3,30.01,SSW,195,3.0,-999.0,89,0.00,,,0.04,Haskell-WGSend-v0.01,2013-06-09 14:30:00,
2013-06-09 09:35:00,74.7,71.2,30.01,South,172,5.0,-999.0,89,0.00,,,0.04,Haskell-WGSend-v0.01,2013-06-09 14:35:00,
2013-06-09 09:40:00,74.7,71.2,30.02,South,171,4.0,-999.0,89,0.00,,,0.04,Haskell-WGSend-v0.01,2013-06-09 14:40:00,
2013-06-09 09:45:00,74.6,71.1,30.01,SSE,167,4.0,-999.0,89,0.00,,,0.04,Haskell-WGSend-v0.01,2013-06-09 14:45:00,
2013-06-09 09:50:00,74.6,71.1,30.01,South,185,3.0,-999.0,89,0.00,,,0.04,Haskell-WGSend-v0.01,2013-06-09 14:50:00,
2013-06-09 09:55:00,74.6,71.1,30.02,SSW,195,0.0,-999.0,89,0.00,,,0.04,Haskell-WGSend-v0.01,2013-06-09 14:55:00,
2013-06-09 10:00:00,74.6,71.1,30.02,SSW,198,4.0,-999.0,89,0.00,,,0.04,Haskell-WGSend-v0.01,2013-06-09 15:00:00,
2013-06-09 10:05:00,74.5,71.0,30.02,SSW,209,2.0,-999.0,89,0.00,,,0.04,Haskell-WGSend-v0.01,2013-06-09 15:05:00,
2013-06-09 10:10:00,74.4,70.9,30.01,SSW,194,0.0,-999.0,89,0.00,,,0.04,Haskell-WGSend-v0.01,2013-06-09 15:10:00,
2013-06-09 10:15:00,74.3,71.2,30.01,South,180,2.0,-999.0,90,0.00,,,0.04,Haskell-WGSend-v0.01,2013-06-09 15:15:00,
2013-06-09 10:20:00,74.2,71.1,30.02,South,186,0.0,-999.0,90,0.00,,,0.04,Haskell-WGSend-v0.01,2013-06-09 15:20:00,
2013-06-09 10:30:00,74.1,71.0,30.02,SSW,193,2.0,-999.0,90,0.00,,,0.04,Haskell-WGSend-v0.01,2013-06-09 15:30:00,
2013-06-09 10:35:00,74.0,70.9,30.02,SSW,192,0.0,-999.0,90,0.00,,,0.04,Haskell-WGSend-v0.01,2013-06-09 15:35:00,
2013-06-09 10:40:00,74.1,71.0,30.02,SSW,203,4.0,-999.0,90,0.00,,,0.04,Haskell-WGSend-v0.01,2013-06-09 15:40:00,
2013-06-09 10:45:00,74.1,71.0,30.02,South,190,1.0,-999.0,90,0.00,,,0.04,Haskell-WGSend-v0.01,2013-06-09 15:45:00,
2013-06-09 10:50:00,74.4,71.3,30.02,SSW,202,0.0,-999.0,90,0.00,,,0.04,Haskell-WGSend-v0.01,2013-06-09 15:50:00,
2013-06-09 10:55:00,74.8,71.7,30.02,SSW,202,0.0,-999.0,90,0.00,,,0.04,Haskell-WGSend-v0.01,2013-06-09 15:55:00,
2013-06-09 11:05:00,76.2,72.0,30.01,SW,214,0.0,-999.0,87,0.00,,,0.04,Haskell-WGSend-v0.01,2013-06-09 16:05:00,
2013-06-09 11:10:00,76.7,72.2,30.01,SSW,203,0.0,-999.0,86,0.00,,,0.04,Haskell-WGSend-v0.01,2013-06-09 16:10:00,
2013-06-09 11:15:00,76.9,71.7,30.02,WSW,239,3.0,-999.0,84,0.00,,,0.04,Haskell-WGSend-v0.01,2013-06-09 16:15:00,
2013-06-09 11:20:00,77.0,71.4,30.02,South,186,6.0,-999.0,83,0.00,,,0.04,Haskell-WGSend-v0.01,2013-06-09 16:20:00,
2013-06-09 11:25:00,77.1,71.9,30.01,WSW,244,4.0,-999.0,84,0.00,,,0.04,Haskell-WGSend-v0.01,2013-06-09 16:25:00,
2013-06-09 11:30:00,77.3,71.7,30.01,SSW,209,3.0,-999.0,83,0.00,,,0.04,Haskell-WGSend-v0.01,2013-06-09 16:30:00,
2013-06-09 11:35:00,77.5,72.3,30.00,SW,217,5.0,-999.0,84,0.00,,,0.04,Haskell-WGSend-v0.01,2013-06-09 16:35:00,
2013-06-09 11:40:00,77.7,72.1,30.00,WSW,255,5.0,-999.0,83,0.00,,,0.04,Haskell-WGSend-v0.01,2013-06-09 16:40:00,
2013-06-09 11:45:00,77.6,72.0,30.00,West,267,7.0,-999.0,83,0.00,,,0.04,Haskell-WGSend-v0.01,2013-06-09 16:45:00,
2013-06-09 11:50:00,77.4,71.8,29.99,WSW,238,4.0,-999.0,83,0.00,,,0.04,Haskell-WGSend-v0.01,2013-06-09 16:50:00,
2013-06-09 11:55:00,77.3,72.4,29.99,WSW,243,6.0,-999.0,85,0.00,,,0.04,Haskell-WGSend-v0.01,2013-06-09 16:55:00,
2013-06-09 12:00:00,77.3,72.4,29.99,WSW,240,1.0,-999.0,85,0.00,,,0.04,Haskell-WGSend-v0.01,2013-06-09 17:00:00,
2013-06-09 12:05:00,77.8,74.0,29.98,WSW,242,2.0,-999.0,88,0.00,,,0.04,Haskell-WGSend-v0.01,2013-06-09 17:05:00,
2013-06-09 12:10:00,78.9,73.6,29.99,WSW,249,5.0,-999.0,84,0.00,,,0.04,Haskell-WGSend-v0.01,2013-06-09 17:10:00,
2013-06-09 12:15:00,79.7,73.7,29.98,West,264,6.0,-999.0,82,0.00,,,0.04,Haskell-WGSend-v0.01,2013-06-09 17:15:00,
2013-06-09 12:20:00,80.5,73.8,29.98,SW,215,5.0,-999.0,80,0.00,,,0.04,Haskell-WGSend-v0.01,2013-06-09 17:20:00,
2013-06-09 12:25:00,81.1,73.6,29.98,WSW,238,4.0,-999.0,78,0.00,,,0.04,Haskell-WGSend-v0.01,2013-06-09 17:25:00,
2013-06-09 12:30:00,81.6,73.3,29.97,SSW,209,3.0,-999.0,76,0.00,,,0.04,Haskell-WGSend-v0.01,2013-06-09 17:30:00,
2013-06-09 12:35:00,81.7,72.6,29.97,South,183,0.0,-999.0,74,0.00,,,0.04,Haskell-WGSend-v0.01,2013-06-09 17:35:00,
2013-06-09 12:40:00,81.7,72.6,29.96,SSE,149,2.0,-999.0,74,0.00,,,0.04,Haskell-WGSend-v0.01,2013-06-09 17:40:00,
2013-06-09 12:45:00,82.2,72.3,29.96,West,259,5.0,-999.0,72,0.00,,,0.04,Haskell-WGSend-v0.01,2013-06-09 17:45:00,
2013-06-09 12:50:00,82.4,71.2,29.96,SSW,198,1.0,-999.0,69,0.00,,,0.04,Haskell-WGSend-v0.01,2013-06-09 17:50:00,
2013-06-09 12:55:00,82.7,71.9,29.96,SSE,166,2.0,-999.0,70,0.00,,,0.04,Haskell-WGSend-v0.01,2013-06-09 17:55:00,
2013-06-09 13:00:00,83.1,73.1,29.96,South,178,2.0,-999.0,72,0.00,,,0.04,Haskell-WGSend-v0.01,2013-06-09 18:00:00,
2013-06-09 13:05:00,83.0,72.6,29.96,SE,140,4.0,-999.0,71,0.00,,,0.04,Haskell-WGSend-v0.01,2013-06-09 18:05:00,
2013-06-09 13:10:00,82.9,72.9,29.96,SE,134,5.0,-999.0,72,0.00,,,0.04,Haskell-WGSend-v0.01,2013-06-09 18:10:00,
2013-06-09 13:15:00,82.7,72.3,29.95,SSE,164,0.0,-999.0,71,0.00,,,0.04,Haskell-WGSend-v0.01,2013-06-09 18:15:00,
2013-06-09 13:20:00,82.8,72.4,29.95,SSW,197,4.0,-999.0,71,0.00,,,0.04,Haskell-WGSend-v0.01,2013-06-09 18:20:00,
2013-06-09 13:25:00,82.9,72.5,29.95,SE,136,0.0,-999.0,71,0.00,,,0.04,Haskell-WGSend-v0.01,2013-06-09 18:25:00,
2013-06-09 13:30:00,82.7,71.1,29.95,SE,132,2.0,-999.0,68,0.00,,,0.04,Haskell-WGSend-v0.01,2013-06-09 18:30:00,
2013-06-09 13:35:00,82.6,71.4,29.95,SE,137,0.0,-999.0,69,0.00,,,0.04,Haskell-WGSend-v0.01,2013-06-09 18:35:00,
2013-06-09 13:40:00,82.8,71.1,29.95,WSW,252,5.0,-999.0,68,0.00,,,0.04,Haskell-WGSend-v0.01,2013-06-09 18:40:00,
2013-06-09 13:45:00,83.3,70.3,29.95,SW,232,0.0,-999.0,65,0.00,,,0.04,Haskell-WGSend-v0.01,2013-06-09 18:45:00,
2013-06-09 13:50:00,83.8,70.8,29.94,South,169,5.0,-999.0,65,0.00,,,0.04,Haskell-WGSend-v0.01,2013-06-09 18:50:00,
2013-06-09 13:55:00,84.1,71.5,29.94,SSW,198,0.0,-999.0,66,0.00,,,0.04,Haskell-WGSend-v0.01,2013-06-09 18:55:00,
2013-06-09 14:00:00,84.3,70.3,29.94,SE,146,1.0,-999.0,63,0.00,,,0.04,Haskell-WGSend-v0.01,2013-06-09 19:00:00,
2013-06-09 14:05:00,85.1,69.6,29.94,SW,219,0.0,-999.0,60,0.00,,,0.04,Haskell-WGSend-v0.01,2013-06-09 19:05:00,
2013-06-09 14:10:00,86.0,69.5,29.93,South,180,3.0,-999.0,58,0.00,,,0.04,Haskell-WGSend-v0.01,2013-06-09 19:10:00,
2013-06-09 14:15:00,86.5,70.0,29.93,South,184,3.0,-999.0,58,0.00,,,0.04,Haskell-WGSend-v0.01,2013-06-09 19:15:00,
2013-06-09 14:20:00,86.5,70.5,29.93,SSW,206,7.0,-999.0,59,0.00,,,0.04,Haskell-WGSend-v0.01,2013-06-09 19:20:00,
2013-06-09 14:25:00,86.4,70.4,29.93,ESE,103,2.0,-999.0,59,0.00,,,0.04,Haskell-WGSend-v0.01,2013-06-09 19:25:00,
2013-06-09 14:30:00,86.3,69.3,29.92,SE,143,2.0,-999.0,57,0.00,,,0.04,Haskell-WGSend-v0.01,2013-06-09 19:30:00,
2013-06-09 14:35:00,86.3,70.3,29.92,South,190,2.0,-999.0,59,0.00,,,0.04,Haskell-WGSend-v0.01,2013-06-09 19:35:00,
2013-06-09 14:40:00,86.6,69.0,29.92,SSW,202,5.0,-999.0,56,0.00,,,0.04,Haskell-WGSend-v0.01,2013-06-09 19:40:00,
2013-06-09 14:45:00,86.8,68.7,29.92,East,88,5.0,-999.0,55,0.00,,,0.04,Haskell-WGSend-v0.01,2013-06-09 19:45:00,
2013-06-09 14:50:00,86.7,69.6,29.92,South,183,0.0,-999.0,57,0.00,,,0.04,Haskell-WGSend-v0.01,2013-06-09 19:50:00,
2013-06-09 14:55:00,86.8,68.1,29.91,SE,138,1.0,-999.0,54,0.00,,,0.04,Haskell-WGSend-v0.01,2013-06-09 19:55:00,
2013-06-09 15:00:00,86.6,68.0,29.91,SSW,198,2.0,-999.0,54,0.00,,,0.04,Haskell-WGSend-v0.01,2013-06-09 20:00:00,
2013-06-09 15:05:00,86.4,69.4,29.91,SSW,208,0.0,-999.0,57,0.00,,,0.04,Haskell-WGSend-v0.01,2013-06-09 20:05:00,
2013-06-09 15:10:00,85.9,69.4,29.91,ESE,115,5.0,-999.0,58,0.00,,,0.04,Haskell-WGSend-v0.01,2013-06-09 20:10:00,
2013-06-09 15:15:00,85.3,69.3,29.91,South,177,4.0,-999.0,59,0.00,,,0.04,Haskell-WGSend-v0.01,2013-06-09 20:15:00,
2013-06-09 15:20:00,85.4,69.9,29.91,South,184,4.0,-999.0,60,0.00,,,0.04,Haskell-WGSend-v0.01,2013-06-09 20:20:00,
2013-06-09 15:25:00,85.9,70.4,29.90,ESE,122,2.0,-999.0,60,0.00,,,0.04,Haskell-WGSend-v0.01,2013-06-09 20:25:00,
2013-06-09 15:30:00,86.1,69.1,29.89,SE,139,7.0,-999.0,57,0.00,,,0.04,Haskell-WGSend-v0.01,2013-06-09 20:30:00,
2013-06-09 15:35:00,85.9,68.9,29.89,South,190,2.0,-999.0,57,0.00,,,0.04,Haskell-WGSend-v0.01,2013-06-09 20:35:00,
2013-06-09 15:40:00,86.3,69.3,29.88,SSW,199,7.0,-999.0,57,0.00,,,0.04,Haskell-WGSend-v0.01,2013-06-09 20:40:00,
2013-06-09 15:45:00,86.1,69.1,29.89,South,175,4.0,-999.0,57,0.00,,,0.04,Haskell-WGSend-v0.01,2013-06-09 20:45:00,
2013-06-09 15:50:00,85.7,69.7,29.89,South,180,0.0,-999.0,59,0.00,,,0.04,Haskell-WGSend-v0.01,2013-06-09 20:50:00,
2013-06-09 15:55:00,85.3,69.8,29.89,South,182,0.0,-999.0,60,0.00,,,0.04,Haskell-WGSend-v0.01,2013-06-09 20:55:00,
2013-06-09 16:00:00,85.0,68.6,29.89,SSW,200,3.0,-999.0,58,0.00,,,0.04,Haskell-WGSend-v0.01,2013-06-09 21:00:00,
2013-06-09 16:05:00,84.7,69.3,29.89,South,181,1.0,-999.0,60,0.00,,,0.04,Haskell-WGSend-v0.01,2013-06-09 21:05:00,
2013-06-09 16:10:00,84.5,69.6,29.89,SSW,196,0.0,-999.0,61,0.00,,,0.04,Haskell-WGSend-v0.01,2013-06-09 21:10:00,
2013-06-09 16:15:00,84.6,69.7,29.89,South,180,1.0,-999.0,61,0.00,,,0.04,Haskell-WGSend-v0.01,2013-06-09 21:15:00,
2013-06-09 16:25:00,85.0,70.0,29.89,SSW,208,2.0,-999.0,61,0.00,,,0.04,Haskell-WGSend-v0.01,2013-06-09 21:25:00,
2013-06-09 16:30:00,85.2,70.2,29.89,SW,218,8.0,-999.0,61,0.00,,,0.04,Haskell-WGSend-v0.01,2013-06-09 21:30:00,
2013-06-09 16:35:00,85.6,71.1,29.89,SSW,195,6.0,-999.0,62,0.00,,,0.04,Haskell-WGSend-v0.01,2013-06-09 21:35:00,
2013-06-09 16:40:00,85.6,71.1,29.90,South,184,8.0,-999.0,62,0.00,,,0.04,Haskell-WGSend-v0.01,2013-06-09 21:40:00,
2013-06-09 16:45:00,85.4,70.4,29.90,SSW,202,5.0,-999.0,61,0.00,,,0.04,Haskell-WGSend-v0.01,2013-06-09 21:45:00,
2013-06-09 16:55:00,84.8,70.3,29.91,SSW,203,8.0,-999.0,62,0.00,,,0.04,Haskell-WGSend-v0.01,2013-06-09 21:55:00,
2013-06-09 17:00:00,83.8,69.4,29.91,ESE,110,6.0,-999.0,62,0.00,,,0.04,Haskell-WGSend-v0.01,2013-06-09 22:00:00,
2013-06-09 17:05:00,82.1,69.6,29.92,SW,227,7.0,-999.0,66,0.00,,,0.04,Haskell-WGSend-v0.01,2013-06-09 22:05:00,
2013-06-09 17:10:00,80.7,69.1,29.92,SE,134,8.0,-999.0,68,0.00,,,0.04,Haskell-WGSend-v0.01,2013-06-09 22:10:00,
2013-06-09 17:15:00,79.7,69.5,29.92,South,180,3.0,-999.0,71,0.00,,,0.04,Haskell-WGSend-v0.01,2013-06-09 22:15:00,
2013-06-09 17:20:00,78.9,69.1,29.92,South,185,3.0,-999.0,72,0.00,,,0.04,Haskell-WGSend-v0.01,2013-06-09 22:20:00,
2013-06-09 17:25:00,78.2,69.2,29.92,SSW,203,3.0,-999.0,74,0.00,,,0.04,Haskell-WGSend-v0.01,2013-06-09 22:25:00,
2013-06-09 17:30:00,77.5,69.7,29.92,SW,221,11.0,-999.0,77,0.00,,,0.04,Haskell-WGSend-v0.01,2013-06-09 22:30:00,
2013-06-09 17:35:00,76.7,69.7,29.92,South,188,2.0,-999.0,79,0.00,,,0.04,Haskell-WGSend-v0.01,2013-06-09 22:35:00,
2013-06-09 17:40:00,76.1,69.1,29.92,SSW,200,6.0,-999.0,79,0.00,,,0.05,Haskell-WGSend-v0.01,2013-06-09 22:40:00,
2013-06-09 17:45:00,75.5,68.5,29.92,South,189,4.0,-999.0,79,0.00,,,0.05,Haskell-WGSend-v0.01,2013-06-09 22:45:00,
2013-06-09 17:55:00,74.6,68.7,29.92,South,190,3.0,-999.0,82,0.00,,,0.05,Haskell-WGSend-v0.01,2013-06-09 22:55:00,
2013-06-09 18:00:00,74.2,68.3,29.92,SSW,192,2.0,-999.0,82,0.00,,,0.05,Haskell-WGSend-v0.01,2013-06-09 23:00:00,
2013-06-09 18:05:00,73.9,68.8,29.92,South,191,0.0,-999.0,84,0.00,,,0.05,Haskell-WGSend-v0.01,2013-06-09 23:05:00,
2013-06-09 18:10:00,73.9,69.1,29.92,South,190,0.0,-999.0,85,0.00,,,0.05,Haskell-WGSend-v0.01,2013-06-09 23:10:00,
2013-06-09 18:15:00,73.8,69.0,29.92,South,191,0.0,-999.0,85,0.00,,,0.05,Haskell-WGSend-v0.01,2013-06-09 23:15:00,
2013-06-09 18:20:00,73.9,69.4,29.92,South,190,2.0,-999.0,86,0.00,,,0.05,Haskell-WGSend-v0.01,2013-06-09 23:20:00,
2013-06-09 18:25:00,73.9,69.4,29.92,South,190,1.0,-999.0,86,0.00,,,0.05,Haskell-WGSend-v0.01,2013-06-09 23:25:00,
2013-06-09 18:30:00,74.0,69.9,29.92,South,190,0.0,-999.0,87,0.00,,,0.05,Haskell-WGSend-v0.01,2013-06-09 23:30:00,
2013-06-09 18:35:00,74.0,70.2,29.93,West,265,0.0,-999.0,88,0.00,,,0.05,Haskell-WGSend-v0.01,2013-06-09 23:35:00,
2013-06-09 18:40:00,74.1,70.3,29.92,SSW,209,3.0,-999.0,88,0.00,,,0.05,Haskell-WGSend-v0.01,2013-06-09 23:40:00,
2013-06-09 18:45:00,74.1,70.3,29.93,SSW,195,0.0,-999.0,88,0.00,,,0.05,Haskell-WGSend-v0.01,2013-06-09 23:45:00,
2013-06-09 18:50:00,74.1,70.3,29.93,South,184,0.0,-999.0,88,0.00,,,0.05,Haskell-WGSend-v0.01,2013-06-09 23:50:00,
2013-06-09 18:55:00,74.2,70.4,29.93,South,174,5.0,-999.0,88,0.00,,,0.05,Haskell-WGSend-v0.01,2013-06-09 23:55:00,
2013-06-09 19:00:00,74.1,70.3,29.92,South,172,0.0,-999.0,88,0.00,,,0.05,Haskell-WGSend-v0.01,2013-06-10 00:00:00,
2013-06-09 19:05:00,74.1,70.3,29.92,South,172,0.0,-999.0,88,0.00,,,0.05,Haskell-WGSend-v0.01,2013-06-10 00:05:00,
2013-06-09 19:10:00,74.1,70.0,29.92,SSW,207,4.0,-999.0,87,0.00,,,0.05,Haskell-WGSend-v0.01,2013-06-10 00:10:00,
2013-06-09 19:15:00,74.1,69.6,29.92,South,169,2.0,-999.0,86,0.00,,,0.05,Haskell-WGSend-v0.01,2013-06-10 00:15:00,
2013-06-09 19:20:00,74.2,69.4,29.91,South,186,2.0,-999.0,85,0.00,,,0.05,Haskell-WGSend-v0.01,2013-06-10 00:20:00,
2013-06-09 19:25:00,74.2,69.4,29.91,South,188,1.0,-999.0,85,0.00,,,0.05,Haskell-WGSend-v0.01,2013-06-10 00:25:00,
2013-06-09 19:30:00,74.1,69.3,29.90,SSE,165,7.0,-999.0,85,0.00,,,0.05,Haskell-WGSend-v0.01,2013-06-10 00:30:00,
2013-06-09 19:35:00,74.0,69.2,29.90,SSE,153,4.0,-999.0,85,0.00,,,0.05,Haskell-WGSend-v0.01,2013-06-10 00:35:00,
2013-06-09 19:40:00,73.8,69.0,29.90,South,177,0.0,-999.0,85,0.00,,,0.05,Haskell-WGSend-v0.01,2013-06-10 00:40:00,
2013-06-09 19:45:00,73.6,69.2,29.89,SSE,157,0.0,-999.0,86,0.00,,,0.05,Haskell-WGSend-v0.01,2013-06-10 00:45:00,
2013-06-09 19:50:00,73.4,69.3,29.88,SSE,156,0.0,-999.0,87,0.00,,,0.05,Haskell-WGSend-v0.01,2013-06-10 00:50:00,
2013-06-09 19:55:00,73.1,69.0,29.88,SSE,165,0.0,-999.0,87,0.00,,,0.05,Haskell-WGSend-v0.01,2013-06-10 00:55:00,
2013-06-09 20:00:00,72.9,68.8,29.88,SE,142,4.0,-999.0,87,0.00,,,0.05,Haskell-WGSend-v0.01,2013-06-10 01:00:00,
2013-06-09 20:05:00,72.6,68.5,29.88,SE,134,0.0,-999.0,87,0.00,,,0.05,Haskell-WGSend-v0.01,2013-06-10 01:05:00,
2013-06-09 20:10:00,72.4,68.3,29.88,South,182,0.0,-999.0,87,0.00,,,0.05,Haskell-WGSend-v0.01,2013-06-10 01:10:00,
2013-06-09 20:20:00,72.0,68.2,29.89,East,93,0.0,-999.0,88,0.00,,,0.05,Haskell-WGSend-v0.01,2013-06-10 01:20:00,
2013-06-09 20:25:00,71.9,68.2,29.89,SE,128,0.0,-999.0,88,0.00,,,0.05,Haskell-WGSend-v0.01,2013-06-10 01:25:00,
2013-06-09 20:30:00,71.7,68.3,29.90,SE,140,6.0,-999.0,89,0.00,,,0.05,Haskell-WGSend-v0.01,2013-06-10 01:30:00,
2013-06-09 20:35:00,71.7,68.3,29.91,SSE,161,5.0,-999.0,89,0.00,,,0.05,Haskell-WGSend-v0.01,2013-06-10 01:35:00,
2013-06-09 20:40:00,71.6,68.2,29.92,SSE,163,0.0,-999.0,89,0.00,,,0.05,Haskell-WGSend-v0.01,2013-06-10 01:40:00,
2013-06-09 20:45:00,71.6,68.2,29.92,South,173,0.0,-999.0,89,0.00,,,0.05,Haskell-WGSend-v0.01,2013-06-10 01:45:00,
2013-06-09 20:50:00,71.6,68.2,29.92,South,169,0.0,-999.0,89,0.00,,,0.05,Haskell-WGSend-v0.01,2013-06-10 01:50:00,
2013-06-09 21:00:00,71.6,68.2,29.92,South,170,5.0,-999.0,89,0.00,,,0.05,Haskell-WGSend-v0.01,2013-06-10 02:00:00,
2013-06-09 21:05:00,71.6,68.2,29.92,South,171,1.0,-999.0,89,0.00,,,0.05,Haskell-WGSend-v0.01,2013-06-10 02:05:00,
2013-06-09 21:10:00,71.7,68.3,29.92,SSE,163,0.0,-999.0,89,0.00,,,0.05,Haskell-WGSend-v0.01,2013-06-10 02:10:00,
2013-06-09 21:15:00,71.7,68.3,29.93,SSE,163,0.0,-999.0,89,0.00,,,0.05,Haskell-WGSend-v0.01,2013-06-10 02:15:00,
2013-06-09 21:20:00,71.7,68.3,29.92,SSE,163,0.0,-999.0,89,0.00,,,0.05,Haskell-WGSend-v0.01,2013-06-10 02:20:00,
2013-06-09 21:25:00,71.7,68.3,29.92,SSE,159,0.0,-999.0,89,0.00,,,0.05,Haskell-WGSend-v0.01,2013-06-10 02:25:00,
2013-06-09 21:30:00,71.8,68.4,29.92,SSE,155,4.0,-999.0,89,0.00,,,0.05,Haskell-WGSend-v0.01,2013-06-10 02:30:00,
2013-06-09 21:35:00,71.8,68.4,29.91,SSE,152,0.0,-999.0,89,0.00,,,0.05,Haskell-WGSend-v0.01,2013-06-10 02:35:00,
2013-06-09 21:40:00,71.8,68.4,29.91,SE,140,5.0,-999.0,89,0.00,,,0.05,Haskell-WGSend-v0.01,2013-06-10 02:40:00,
2013-06-09 21:45:00,71.8,68.4,29.91,SSE,163,1.0,-999.0,89,0.00,,,0.05,Haskell-WGSend-v0.01,2013-06-10 02:45:00,
2013-06-09 21:50:00,71.7,68.3,29.91,SSE,155,2.0,-999.0,89,0.00,,,0.05,Haskell-WGSend-v0.01,2013-06-10 02:50:00,
2013-06-09 21:55:00,71.7,68.3,29.92,SSE,159,2.0,-999.0,89,0.00,,,0.05,Haskell-WGSend-v0.01,2013-06-10 02:55:00,
2013-06-09 22:00:00,71.7,68.3,29.92,ESE,105,0.0,-999.0,89,0.00,,,0.06,Haskell-WGSend-v0.01,2013-06-10 03:00:00,
2013-06-09 22:05:00,71.6,68.2,29.92,SSE,149,0.0,-999.0,89,0.00,,,0.06,Haskell-WGSend-v0.01,2013-06-10 03:05:00,
2013-06-09 22:10:00,71.6,68.2,29.92,SSE,153,1.0,-999.0,89,0.00,,,0.06,Haskell-WGSend-v0.01,2013-06-10 03:10:00,
2013-06-09 22:15:00,71.5,68.1,29.92,SSE,152,0.0,-999.0,89,0.00,,,0.06,Haskell-WGSend-v0.01,2013-06-10 03:15:00,
2013-06-09 22:25:00,71.3,68.2,29.92,SSE,153,6.0,-999.0,90,0.00,,,0.06,Haskell-WGSend-v0.01,2013-06-10 03:25:00,
2013-06-09 22:30:00,71.2,68.1,29.92,South,172,5.0,-999.0,90,0.00,,,0.06,Haskell-WGSend-v0.01,2013-06-10 03:30:00,
2013-06-09 22:35:00,71.2,68.1,29.93,SSE,158,1.0,-999.0,90,0.00,,,0.06,Haskell-WGSend-v0.01,2013-06-10 03:35:00,
2013-06-09 22:40:00,71.2,68.1,29.93,SSE,155,0.0,-999.0,90,0.00,,,0.06,Haskell-WGSend-v0.01,2013-06-10 03:40:00,
2013-06-09 22:45:00,71.2,68.1,29.94,SE,142,4.0,-999.0,90,0.00,,,0.06,Haskell-WGSend-v0.01,2013-06-10 03:45:00,
2013-06-09 22:50:00,71.2,68.1,29.94,SSE,149,4.0,-999.0,90,0.00,,,0.06,Haskell-WGSend-v0.01,2013-06-10 03:50:00,
2013-06-09 22:55:00,71.3,68.2,29.94,SSE,152,1.0,-999.0,90,0.00,,,0.06,Haskell-WGSend-v0.01,2013-06-10 03:55:00,
2013-06-09 23:05:00,71.5,68.4,29.94,South,177,2.0,-999.0,90,0.00,,,0.06,Haskell-WGSend-v0.01,2013-06-10 04:05:00,
2013-06-09 23:10:00,71.5,68.4,29.94,SSE,165,2.0,-999.0,90,0.00,,,0.06,Haskell-WGSend-v0.01,2013-06-10 04:10:00,
2013-06-09 23:15:00,71.5,68.4,29.94,SSE,167,0.0,-999.0,90,0.00,,,0.06,Haskell-WGSend-v0.01,2013-06-10 04:15:00,
2013-06-09 23:25:00,71.5,68.4,29.94,SE,135,7.0,-999.0,90,0.00,,,0.06,Haskell-WGSend-v0.01,2013-06-10 04:25:00,
2013-06-09 23:30:00,71.6,68.5,29.94,SE,144,0.0,-999.0,90,0.00,,,0.06,Haskell-WGSend-v0.01,2013-06-10 04:30:00,
2013-06-09 23:35:00,71.6,68.5,29.94,SE,146,0.0,-999.0,90,0.00,,,0.06,Haskell-WGSend-v0.01,2013-06-10 04:35:00,
2013-06-09 23:40:00,71.6,68.5,29.94,South,171,1.0,-999.0,90,0.00,,,0.06,Haskell-WGSend-v0.01,2013-06-10 04:40:00,
2013-06-09 23:45:00,71.6,68.5,29.94,South,181,2.0,-999.0,90,0.00,,,0.06,Haskell-WGSend-v0.01,2013-06-10 04:45:00,
2013-06-09 23:50:00,71.6,68.5,29.93,South,179,6.0,-999.0,90,0.00,,,0.06,Haskell-WGSend-v0.01,2013-06-10 04:50:00,
2013-06-09 23:55:00,71.6,68.5,29.93,South,181,3.0,-999.0,90,0.00,,,0.06,Haskell-WGSend-v0.01,2013-06-10 04:55:00,